SL-16 DEB, 22616

Orbit data source: Space-Track

SL-16 DEB, 22616 is space debris in LEO originally from a launch on Fri, 26 Mar 1993 UTC launched from the Tyuratam Missile And Space Complex (TTMTR). Debris objects in space refer to the collection of defunct objects orbiting the Earth. Examples of debris include non-operational satellites, rocket bodies, and fragments generated from explosions, collisions, or faulty payload assembly.

Loading next visibility...
Identifier
22616, 1993-016AA
Orbit
LEO
Country
Flag of CISCIS
Related business
Manufacturer
Unknown
Mission
Spacecraft
Bus & Motor
Unknown
Mass
Unknown
Launch date (UTC)
1993-03-26 (33 years ago)
Launch vehicle
Unknown
Launch site
Tyuratam Missile And Space Complex (TTMTR)
Object type
Payload
Rocket body
Debris
Shape & HBR
Unknown shape, 0.1 m
Radar Cross Section
Small (<0.1 m²)

Expand to show TLE details & history
Last TLE update: 13 hours ago

TLE from 13 hours ago
0 SL-16 DEB
1 22616U 93016AA  25312.50096589  .00000111  00000-0  14364-3 0  9995
2 22616  70.9962 331.3297 0185047 131.5102  20.4660 13.73962727634770
Epoch: 2025-11-08T12:01Z
TLE epoch observation values (Epoch: 2025-11-08T12:01:23.452Z)
Latitude
25.71034°
Longitude
-86.44192°
Altitude
860.585 km
Speed
7.489 km/s
True Right ascension
09h 27m 20s
True Declination
25° 34' 41"
Sunlit
Object was in daylight at epoch
Visualization orbit readout
Latitude
Unknown
Longitude
Unknown
Altitude
Unknown
Speed
Unknown
Apparent Right ascension
Unknown
Apparent Declination
Unknown
Sunlit
N/A
Visualization observer readout
Local Sidereal Time
21:28:51
Azimuth
Unknown
Elevation
Unknown
Doppler factor
Unknown
Orbital elements
Apogee altitude
1,119.565 km
Perigee altitude
847.121 km
Semi-major axis
7,361.48 km
Eccentricity
0.0185
Inclination
70.9962°
RAAN
331.3297°
Arg. of periapsis
131.5102°
True anomaly
21.22382°
Mean anomaly
20.466°
Eccentric anomaly
20.84325°
Mean motion
3.43633 °/min
Orbital period
104.76 mins
BSTAR
0.00014364
Loading maneuver chart data...
Computing Atmospheric mass density...
Loading historical data...
Loading historical data...
Loading historical data...
Loading historical data...
Loading historical data...
Loading historical data...
Loading historical data...

Documentation

Showing up to 5 results
|